Location: Recife
(8.0585°S, 34.8848°W)
Time: 12:22:08
(UTC-03:00)

Vanguard 1 Rocket - Pass Details

Date: 14 April 2026
Orbit: 655 x 4212 km, 34.3° (Epoch: 12 May)

Event Time Altitude Azimuth Distance (km) Brightness Sun altitude
Rises 20:08:33 0° 259° (W) 6,993 12.7 -42.8°
Reaches altitude 10° 20:13:27 10° 267° (W) 6,393 12.3 -44.0°
Maximum altitude 20:32:53 35° 325° (NW) 5,487 11.3 -48.8°
Drops below altitude 10° 20:54:48 10° 25° (NNE) 6,992 11.7 -54.2°
Sets 21:00:47 0° 34° (NE) 7,661 11.9 -55.7°
